Satellite-Ground Cal/Val Region Overpasses Predictions

Prediction of Satellite NPP Overpassing Cal/Val Region: PacNW

Region Location: (Latitude: 10.00, Longitude: 139.50) to (Latitude: 22.70, Longitude: 165.60).

Table of predicted overpasses for the next 14.0 days since TLE Epoch: 12/10/2022
Interval Starting Time Starting Location Ending Time Ending Location
1 12/10/2022 15:24:40 ( 22.69, 154.03) 12/10/2022 15:28:16 ( 10.01, 151.01)
2 12/11/2022 02:33:45 ( 10.01, 161.54) 12/11/2022 02:37:21 ( 22.69, 158.52)
3 12/11/2022 15:05:39 ( 22.69, 158.78) 12/11/2022 15:09:15 ( 10.01, 155.76)
4 12/12/2022 02:15:37 ( 13.06, 165.59) 12/12/2022 02:18:21 ( 22.69, 163.27)
5 12/12/2022 03:56:15 ( 10.01, 140.92) 12/12/2022 03:57:58 ( 16.06, 139.51)
6 12/12/2022 14:46:39 ( 22.69, 163.54) 12/12/2022 14:50:15 ( 10.01, 160.52)
7 12/13/2022 03:37:15 ( 10.01, 145.67) 12/13/2022 03:40:51 ( 22.69, 142.65)
8 12/13/2022 14:30:50 ( 11.42, 165.60) 12/13/2022 14:31:14 ( 10.01, 165.27)
9 12/13/2022 16:09:08 ( 22.69, 142.92) 12/13/2022 16:12:44 ( 10.01, 139.90)
10 12/14/2022 03:18:14 ( 10.01, 150.43) 12/14/2022 03:21:50 ( 22.68, 147.41)
11 12/14/2022 15:50:08 ( 22.69, 147.67) 12/14/2022 15:53:44 ( 10.01, 144.65)
12 12/15/2022 02:59:14 ( 10.01, 155.18) 12/15/2022 03:02:50 ( 22.68, 152.16)
13 12/15/2022 15:31:07 ( 22.69, 152.43) 12/15/2022 15:34:43 ( 10.01, 149.41)
14 12/16/2022 02:40:13 ( 10.01, 159.94) 12/16/2022 02:43:49 ( 22.69, 156.91)
15 12/16/2022 15:12:07 ( 22.69, 157.18) 12/16/2022 15:15:43 ( 10.01, 154.16)
16 12/17/2022 02:21:13 ( 10.01, 164.69) 12/17/2022 02:24:49 ( 22.69, 161.67)
17 12/17/2022 14:53:06 ( 22.69, 161.94) 12/17/2022 14:56:42 ( 10.01, 158.91)
18 12/18/2022 03:43:42 ( 10.01, 144.07) 12/18/2022 03:47:18 ( 22.69, 141.05)
19 12/18/2022 14:35:22 ( 18.23, 165.59) 12/18/2022 14:37:42 ( 10.01, 163.67)
20 12/18/2022 16:15:36 ( 22.69, 141.31) 12/18/2022 16:17:43 ( 15.24, 139.51)
21 12/19/2022 03:24:42 ( 10.01, 148.82) 12/19/2022 03:28:18 ( 22.69, 145.80)
22 12/19/2022 15:56:35 ( 22.68, 146.07) 12/19/2022 16:00:11 ( 10.01, 143.05)
23 12/20/2022 03:05:41 ( 10.02, 153.58) 12/20/2022 03:09:17 ( 22.70, 150.55)
24 12/20/2022 15:37:35 ( 22.68, 150.82) 12/20/2022 15:41:11 ( 10.00, 147.80)
25 12/21/2022 02:46:41 ( 10.02, 158.33) 12/21/2022 02:50:16 ( 22.64, 155.32)
26 12/21/2022 15:18:35 ( 22.67, 155.57) 12/21/2022 15:22:10 ( 10.05, 152.57)
27 12/22/2022 02:27:40 ( 10.03, 163.08) 12/22/2022 02:31:15 ( 22.65, 160.07)
28 12/22/2022 14:59:34 ( 22.67, 160.33) 12/22/2022 15:03:09 ( 10.05, 157.32)
29 12/23/2022 02:11:22 ( 19.55, 165.60) 12/23/2022 02:12:15 ( 22.66, 164.83)
30 12/23/2022 03:50:10 ( 10.04, 142.46) 12/23/2022 03:53:41 ( 22.42, 139.51)
31 12/23/2022 14:40:34 ( 22.66, 165.08) 12/23/2022 14:44:09 ( 10.04, 162.07)
32 12/23/2022 16:22:04 ( 22.66, 139.71) 12/23/2022 16:22:18 ( 21.84, 139.50)
